Location: Cudham
(51.3000°N, 0.0667°E)
Time: 20:59:33
(UTC+00:00)

Meteor 1-11 Rocket - Pass Details

Date: 19 May 2025
Orbit: 830 x 915 km, 81.2° (Epoch: 21 June)

Event Time Altitude Azimuth Distance (km) Brightness Sun altitude
Rises 22:42:17 0° 345° (NNW) 3,390 8.7 -16.9°
Reaches altitude 10° 22:44:42 10° 342° (NNW) 2,449 7.4 -17.0°
Maximum altitude 22:50:10 63° 263° (W) 925 3.9 -17.3°
Enters shadow 22:53:15 26° 190° (S) 1,586 4.6 -17.4°
